{"data":{"norad_id":47276,"intl_designator":"2020-100U","name":"ONEWEB-0130","alt_names":[],"object_type":"PAYLOAD","status":"ACTIVE","operator":null,"country":"UK","launch_date":"2020-12-18","launch_site_code":"VOSTO","launch_vehicle":null,"mission":null,"orbit_class":"UNKNOWN","rcs_meters":null,"size_class":null,"mass_kg":null,"dimensions":null,"purposes":["comms"],"wikipedia_slug":null,"has_3d_model":false,"image_url":null,"decayed_at":null,"tle_current":{"epoch":"2026-05-25T02:09:36.792288Z","epoch_age_seconds":57407,"freshness":"FRESH","line1":"1 47276U 20100U   26145.09000917 -.00000038  00000+0 -14147-3 0  9995","line2":"2 47276  87.8961 355.2450 0001683  85.4054 274.7267 13.12443195261619","mean_motion":13.12443195,"eccentricity":0.0001683,"inclination_deg":87.8961,"raan_deg":355.245,"arg_perigee_deg":85.4054,"mean_anomaly_deg":274.7267,"bstar":-0.00014147,"rev_number":26161,"period_min":109.71903435409,"perigee_km":1212.4448290991,"apogee_km":1215.0002490199,"semimajor_km":7591.8595390595,"source":"CELESTRAK","updated_at":"2026-05-25T13:38:22.382978Z"}}}